SAS220 BGSF-BIKF

Flight info

Callsign SAS220
Flight time 1h 44m
Altitude 27000
Route WUTAN1A WUTAN UW28 DA UT592 NONRO/M085F410 DCT GIRUG GIRUG4K
Aircraft A359/H-SDE2E3GHIJ3J4J5LM1ORWXY/LB1D1

Departure

Time 2026-04-27 07:11
Airport Kangerlussuaq International Airport (BGSF)

Arrival

Time 2026-04-27 08:56
Airport Keflavik International Airport (BIKF)
Time Latitude Longitude Altitude Speed Heading
2026-04-27 06:24 67.00769 -50.71735 176 ft 0 kts 150°
2026-04-27 06:35 67.00770 -50.71735 177 ft 0 kts 150°
2026-04-27 07:04 67.00767 -50.71730 176 ft 1 kts 145°
2026-04-27 07:05 67.00765 -50.71720 176 ft 0 kts 127°
2026-04-27 07:05 67.00763 -50.71706 176 ft 1 kts 109°
2026-04-27 07:05 67.00782 -50.71635 177 ft 10 kts 44°
2026-04-27 07:05 67.00861 -50.71455 179 ft 18 kts 42°
2026-04-27 07:06 67.00932 -50.71175 183 ft 20 kts 62°
2026-04-27 07:06 67.00983 -50.70828 198 ft 22 kts 75°
2026-04-27 07:06 67.01052 -50.70466 198 ft 24 kts 62°
2026-04-27 07:06 67.01132 -50.70084 209 ft 26 kts 61°
2026-04-27 07:07 67.01220 -50.69671 209 ft 27 kts 62°
2026-04-27 07:07 67.01304 -50.69418 216 ft 11 kts 34°
2026-04-27 07:07 67.01374 -50.69285 216 ft 14 kts 37°
2026-04-27 07:07 67.01454 -50.69141 219 ft 13 kts 33°
2026-04-27 07:08 67.01510 -50.69049 220 ft 3 kts 32°
2026-04-27 07:08 67.01512 -50.69046 220 ft 0 kts 32°
2026-04-27 07:09 67.01513 -50.69044 209 ft 1 kts 32°
2026-04-27 07:09 67.01521 -50.69032 217 ft 1 kts 32°
2026-04-27 07:09 67.01547 -50.68990 218 ft 8 kts 32°
2026-04-27 07:10 67.01611 -50.68887 221 ft 15 kts 32°
2026-04-27 07:10 67.01695 -50.68800 222 ft 11 kts 335°
2026-04-27 07:10 67.01696 -50.68910 220 ft 9 kts 254°
2026-04-27 07:10 67.01680 -50.68987 219 ft 0 kts 242°
2026-04-27 07:11 67.01625 -50.69251 216 ft 48 kts 241°
2026-04-27 07:11 67.01353 -50.70542 209 ft 115 kts 242°
2026-04-27 07:11 67.00873 -50.72731 324 ft 154 kts 244°
2026-04-27 07:11 67.00340 -50.75053 1068 ft 149 kts 244°
2026-04-27 07:12 66.99789 -50.77306 1753 ft 158 kts 243°
2026-04-27 07:12 66.99157 -50.79891 2160 ft 185 kts 238°
2026-04-27 07:12 66.98150 -50.82257 2703 ft 208 kts 220°
2026-04-27 07:12 66.96998 -50.84649 3393 ft 218 kts 227°
2026-04-27 07:13 66.95767 -50.87107 4035 ft 236 kts 212°
2026-04-27 07:13 66.94115 -50.88139 4676 ft 256 kts 179°
2026-04-27 07:13 66.92411 -50.86780 5382 ft 267 kts 143°
2026-04-27 07:13 66.91267 -50.83176 6300 ft 262 kts 107°
2026-04-27 07:14 66.91137 -50.78694 7255 ft 252 kts 72°
2026-04-27 07:14 66.91734 -50.74499 8163 ft 253 kts 63°
2026-04-27 07:14 66.92399 -50.70295 9063 ft 258 kts 65°
2026-04-27 07:14 66.93028 -50.65967 9986 ft 263 kts 66°
2026-04-27 07:15 66.93630 -50.61447 10589 ft 279 kts 68°
2026-04-27 07:15 66.94212 -50.56526 10998 ft 301 kts 71°
2026-04-27 07:15 66.94752 -50.51180 11407 ft 321 kts 74°
2026-04-27 07:15 66.95215 -50.45465 11979 ft 335 kts 78°
2026-04-27 07:16 66.95334 -50.39435 12720 ft 346 kts 92°
2026-04-27 07:16 66.95071 -50.33285 13548 ft 350 kts 92°
2026-04-27 07:16 66.94919 -50.27141 14335 ft 353 kts 92°
2026-04-27 07:16 66.94797 -50.20846 15039 ft 358 kts 92°
2026-04-27 07:17 66.94686 -50.14474 15790 ft 361 kts 93°
2026-04-27 07:17 66.94576 -50.08050 16594 ft 362 kts 95°
2026-04-27 07:17 66.94459 -50.01612 17380 ft 366 kts 96°
2026-04-27 07:17 66.94332 -49.95094 18156 ft 369 kts 96°
2026-04-27 07:18 66.94197 -49.88527 18828 ft 373 kts 97°
2026-04-27 07:18 66.94054 -49.81872 19424 ft 379 kts 96°
2026-04-27 07:18 66.93905 -49.75113 20034 ft 384 kts 96°
2026-04-27 07:18 66.93752 -49.68249 20672 ft 390 kts 96°
2026-04-27 07:19 66.93595 -49.61313 21288 ft 395 kts 96°
2026-04-27 07:19 66.93433 -49.54267 21912 ft 400 kts 96°
2026-04-27 07:19 66.93266 -49.47139 22529 ft 405 kts 96°
2026-04-27 07:19 66.93095 -49.39939 23122 ft 410 kts 96°
2026-04-27 07:20 66.92917 -49.32618 23688 ft 415 kts 96°
2026-04-27 07:20 66.92735 -49.25232 24175 ft 420 kts 96°
2026-04-27 07:20 66.92546 -49.17739 24663 ft 425 kts 96°
2026-04-27 07:20 66.92353 -49.10200 25152 ft 429 kts 96°
2026-04-27 07:21 66.92156 -49.02669 25629 ft 434 kts 96°
2026-04-27 07:21 66.91951 -48.94970 26099 ft 438 kts 96°
2026-04-27 07:21 66.91740 -48.87176 26603 ft 442 kts 96°
2026-04-27 07:21 66.91524 -48.79339 27133 ft 445 kts 96°
2026-04-27 07:22 66.91300 -48.71423 27592 ft 450 kts 96°
2026-04-27 07:22 66.91071 -48.63424 28018 ft 455 kts 97°
2026-04-27 07:22 66.90837 -48.55397 28629 ft 455 kts 97°
2026-04-27 07:22 66.90597 -48.47305 29091 ft 459 kts 97°
2026-04-27 07:23 66.90350 -48.39156 29502 ft 464 kts 97°
2026-04-27 07:23 66.90095 -48.30920 29914 ft 469 kts 97°
2026-04-27 07:23 66.89835 -48.22596 30279 ft 473 kts 97°
2026-04-27 07:23 66.89567 -48.14189 30585 ft 477 kts 97°
2026-04-27 07:24 66.89294 -48.05731 30886 ft 482 kts 97°
2026-04-27 07:24 66.89014 -47.97212 31146 ft 485 kts 97°
2026-04-27 07:24 66.88727 -47.88622 31434 ft 489 kts 97°
2026-04-27 07:24 66.88433 -47.79962 31717 ft 492 kts 97°
2026-04-27 07:25 66.88135 -47.71264 32011 ft 495 kts 97°
2026-04-27 07:25 66.87832 -47.62625 32275 ft 498 kts 97°
2026-04-27 07:25 66.87517 -47.53811 32528 ft 501 kts 97°
2026-04-27 07:25 66.87197 -47.44968 32887 ft 502 kts 97°
2026-04-27 07:26 66.86872 -47.36139 33236 ft 502 kts 97°
2026-04-27 07:26 66.86541 -47.27284 33574 ft 503 kts 97°
2026-04-27 07:26 66.86204 -47.18390 33891 ft 504 kts 97°
2026-04-27 07:26 66.85863 -47.09498 34169 ft 504 kts 98°
2026-04-27 07:27 66.85519 -47.00654 34513 ft 503 kts 98°
2026-04-27 07:27 66.85167 -46.91794 34801 ft 503 kts 98°
2026-04-27 07:27 66.84811 -46.82941 35043 ft 504 kts 98°
2026-04-27 07:27 66.84449 -46.74086 35311 ft 504 kts 98°
2026-04-27 07:28 66.84082 -46.65222 35530 ft 504 kts 98°
2026-04-27 07:28 66.83711 -46.56349 35807 ft 504 kts 98°
2026-04-27 07:28 66.83334 -46.47498 36062 ft 505 kts 98°
2026-04-27 07:28 66.82957 -46.38751 36298 ft 505 kts 98°
2026-04-27 07:29 66.82570 -46.29893 36534 ft 506 kts 98°
2026-04-27 07:29 66.82177 -46.21011 36677 ft 506 kts 98°
2026-04-27 07:29 66.81778 -46.12113 36911 ft 506 kts 98°
2026-04-27 07:29 66.81376 -46.03256 37136 ft 506 kts 98°
2026-04-27 07:30 66.80967 -45.94358 37383 ft 507 kts 98°
2026-04-27 07:30 66.80694 -45.88473 37519 ft 507 kts 99°
2026-04-27 07:30 66.80277 -45.79592 37671 ft 507 kts 99°
2026-04-27 07:30 66.79718 -45.67830 37956 ft 507 kts 99°
2026-04-27 07:31 66.79292 -45.58959 38118 ft 506 kts 99°
2026-04-27 07:31 66.78862 -45.50117 38346 ft 506 kts 99°
2026-04-27 07:31 66.78567 -45.44123 38442 ft 506 kts 100°
2026-04-27 07:31 66.78126 -45.35295 38569 ft 506 kts 100°
2026-04-27 07:32 66.77678 -45.26424 38711 ft 506 kts 100°
2026-04-27 07:32 66.77232 -45.17702 38867 ft 506 kts 100°
2026-04-27 07:32 66.76776 -45.08855 39012 ft 506 kts 100°
2026-04-27 07:32 66.76314 -45.00007 39153 ft 506 kts 100°
2026-04-27 07:33 66.75849 -44.91182 39284 ft 506 kts 100°
2026-04-27 07:33 66.75379 -44.82344 39412 ft 506 kts 100°
2026-04-27 07:33 66.74901 -44.73482 39542 ft 507 kts 100°
2026-04-27 07:33 66.74421 -44.64650 39675 ft 507 kts 100°
2026-04-27 07:34 66.73935 -44.55812 39799 ft 507 kts 101°
2026-04-27 07:34 66.72949 -44.38150 39974 ft 507 kts 101°
2026-04-27 07:35 66.71946 -44.20573 40174 ft 508 kts 101°
2026-04-27 07:35 66.71436 -44.11758 40327 ft 506 kts 101°
2026-04-27 07:35 66.70920 -44.02938 40451 ft 506 kts 102°
2026-04-27 07:36 66.69874 -43.85330 40549 ft 507 kts 102°
2026-04-27 07:36 66.68807 -43.67710 40555 ft 506 kts 102°
2026-04-27 07:37 66.67729 -43.50243 40548 ft 506 kts 102°
2026-04-27 07:37 66.66628 -43.32703 40539 ft 507 kts 102°
2026-04-27 07:38 66.65503 -43.15150 40537 ft 507 kts 103°
2026-04-27 07:38 66.64357 -42.97591 40537 ft 507 kts 103°
2026-04-27 07:39 66.63193 -42.80059 40533 ft 507 kts 103°
2026-04-27 07:39 66.62010 -42.62524 40519 ft 506 kts 103°
2026-04-27 07:40 66.60810 -42.45079 40518 ft 505 kts 103°
2026-04-27 07:40 66.59593 -42.27683 40494 ft 505 kts 104°
2026-04-27 07:41 66.58363 -42.10380 40509 ft 505 kts 104°
2026-04-27 07:41 66.57106 -41.92993 40509 ft 505 kts 104°
2026-04-27 07:42 66.55828 -41.75596 40501 ft 505 kts 104°
2026-04-27 07:42 66.54534 -41.58258 40498 ft 505 kts 104°
2026-04-27 07:43 66.53222 -41.40947 40487 ft 505 kts 104°
2026-04-27 07:43 66.51896 -41.23727 40449 ft 505 kts 105°
2026-04-27 07:44 66.50539 -41.06366 40485 ft 505 kts 105°
2026-04-27 07:44 66.49175 -40.89184 40471 ft 505 kts 105°
2026-04-27 07:45 66.47786 -40.71952 40466 ft 505 kts 105°
2026-04-27 07:45 66.46377 -40.54711 40455 ft 505 kts 105°
2026-04-27 07:46 66.44950 -40.37507 40459 ft 505 kts 106°
2026-04-27 07:46 66.43502 -40.20301 40456 ft 505 kts 106°
2026-04-27 07:47 66.42038 -40.03144 40463 ft 506 kts 106°
2026-04-27 07:47 66.40550 -39.85963 40450 ft 506 kts 107°
2026-04-27 07:48 66.39054 -39.68904 40462 ft 506 kts 107°
2026-04-27 07:48 66.37532 -39.51784 40464 ft 505 kts 107°
2026-04-27 07:49 66.35990 -39.34685 40466 ft 505 kts 107°
2026-04-27 07:49 66.34429 -39.17601 40462 ft 505 kts 107°
2026-04-27 07:50 66.32848 -39.00519 40460 ft 505 kts 107°
2026-04-27 07:50 66.31254 -38.83519 40459 ft 505 kts 107°
2026-04-27 07:51 66.29651 -38.66642 40450 ft 505 kts 108°
2026-04-27 07:51 66.28016 -38.49651 40453 ft 505 kts 108°
2026-04-27 07:52 66.26367 -38.32722 40439 ft 505 kts 108°
2026-04-27 07:52 66.24697 -38.15790 40438 ft 504 kts 108°
2026-04-27 07:53 66.23011 -37.98903 40416 ft 504 kts 108°
2026-04-27 07:53 66.21313 -37.82107 40429 ft 505 kts 109°
2026-04-27 07:54 66.19587 -37.65234 40434 ft 505 kts 109°
2026-04-27 07:54 66.17842 -37.48382 40426 ft 505 kts 109°
2026-04-27 07:55 66.16079 -37.31548 40419 ft 505 kts 109°
2026-04-27 07:55 66.14298 -37.14737 40418 ft 505 kts 109°
2026-04-27 07:56 66.12502 -36.97981 40418 ft 505 kts 109°
2026-04-27 07:56 66.10688 -36.81253 40442 ft 504 kts 110°
2026-04-27 07:57 66.08857 -36.64570 40435 ft 504 kts 110°
2026-04-27 07:57 66.07008 -36.47909 40461 ft 504 kts 110°
2026-04-27 07:58 66.05154 -36.31383 40454 ft 504 kts 110°
2026-04-27 07:58 66.03271 -36.14774 40452 ft 504 kts 110°
2026-04-27 07:59 66.01371 -35.98197 40406 ft 504 kts 111°
2026-04-27 07:59 65.98483 -35.73343 40473 ft 505 kts 112°
2026-04-27 08:00 65.96533 -35.56803 40466 ft 504 kts 111°
2026-04-27 08:00 65.94571 -35.40288 40487 ft 504 kts 112°
2026-04-27 08:01 65.92587 -35.23820 40484 ft 504 kts 112°
2026-04-27 08:01 65.90591 -35.07375 40479 ft 504 kts 112°
2026-04-27 08:02 65.88572 -34.90965 40460 ft 503 kts 113°
2026-04-27 08:02 65.86547 -34.74557 40482 ft 505 kts 113°
2026-04-27 08:03 65.84503 -34.58264 40480 ft 504 kts 115°
2026-04-27 08:03 65.82429 -34.41879 40482 ft 505 kts 114°
2026-04-27 08:04 65.80339 -34.25537 40478 ft 504 kts 113°
2026-04-27 08:04 65.78232 -34.09230 40481 ft 504 kts 114°
2026-04-27 08:05 65.76108 -33.92953 40444 ft 504 kts 113°
2026-04-27 08:05 65.73984 -33.76825 40482 ft 504 kts 113°
2026-04-27 08:06 65.71827 -33.60620 40477 ft 504 kts 113°
2026-04-27 08:06 65.69651 -33.44422 40476 ft 504 kts 113°
2026-04-27 08:07 65.67462 -33.28268 40462 ft 504 kts 114°
2026-04-27 08:07 65.65256 -33.12147 40479 ft 503 kts 114°
2026-04-27 08:08 65.63033 -32.96046 40439 ft 503 kts 114°
2026-04-27 08:08 65.60804 -32.80062 40484 ft 504 kts 114°
2026-04-27 08:09 65.58546 -32.64013 40508 ft 504 kts 114°
2026-04-27 08:09 65.56269 -32.47978 40506 ft 504 kts 114°
2026-04-27 08:10 65.53975 -32.31968 40512 ft 504 kts 115°
2026-04-27 08:10 65.51659 -32.15951 40529 ft 504 kts 115°
2026-04-27 08:11 65.49349 -32.00116 40528 ft 504 kts 115°
2026-04-27 08:11 65.47005 -31.84202 40539 ft 504 kts 115°
2026-04-27 08:12 65.44645 -31.68309 40530 ft 504 kts 115°
2026-04-27 08:12 65.42268 -31.52452 40560 ft 505 kts 115°
2026-04-27 08:13 65.39869 -31.36580 40562 ft 505 kts 115°
2026-04-27 08:13 65.37456 -31.20753 40568 ft 505 kts 115°
2026-04-27 08:14 65.35041 -31.05054 40584 ft 505 kts 116°
2026-04-27 08:14 65.32593 -30.89276 40583 ft 505 kts 116°
2026-04-27 08:15 65.30129 -30.73529 40589 ft 505 kts 116°
2026-04-27 08:15 65.27648 -30.57809 40603 ft 505 kts 116°
2026-04-27 08:16 65.25153 -30.42134 40609 ft 505 kts 116°
2026-04-27 08:16 65.22657 -30.26586 40609 ft 505 kts 116°
2026-04-27 08:17 65.20129 -30.10960 40621 ft 505 kts 116°
2026-04-27 08:17 65.17570 -29.95401 40618 ft 504 kts 118°
2026-04-27 08:18 65.14714 -29.80198 40630 ft 503 kts 120°
2026-04-27 08:18 65.11838 -29.65051 40627 ft 503 kts 120°
2026-04-27 08:19 65.09450 -29.52448 40642 ft 503 kts 120°
2026-04-27 08:19 65.06103 -29.34856 40641 ft 503 kts 120°
2026-04-27 08:20 65.03681 -29.22214 40645 ft 503 kts 120°
2026-04-27 08:20 65.00777 -29.07146 40642 ft 503 kts 120°
2026-04-27 08:21 64.97856 -28.92109 40664 ft 503 kts 120°
2026-04-27 08:21 64.94944 -28.77220 40664 ft 503 kts 120°
2026-04-27 08:22 64.91999 -28.62275 40667 ft 503 kts 120°
2026-04-27 08:22 64.89035 -28.47339 40680 ft 503 kts 121°
2026-04-27 08:23 64.86056 -28.32439 40680 ft 502 kts 121°
2026-04-27 08:23 64.83066 -28.17588 40685 ft 503 kts 121°
2026-04-27 08:24 64.80059 -28.02765 40694 ft 503 kts 121°
2026-04-27 08:24 64.77034 -27.87953 40705 ft 503 kts 121°
2026-04-27 08:25 64.74013 -27.73267 40700 ft 503 kts 121°
2026-04-27 08:25 64.72497 -27.65928 40465 ft 498 kts 121°
2026-04-27 08:25 64.70989 -27.58654 39926 ft 496 kts 122°
2026-04-27 08:26 64.69475 -27.51390 39577 ft 499 kts 122°
2026-04-27 08:26 64.67947 -27.44087 39241 ft 501 kts 122°
2026-04-27 08:26 64.66410 -27.36760 38910 ft 503 kts 122°
2026-04-27 08:26 64.64865 -27.29421 38647 ft 503 kts 122°
2026-04-27 08:27 64.63316 -27.22084 38419 ft 503 kts 123°
2026-04-27 08:27 64.61763 -27.14750 38131 ft 503 kts 123°
2026-04-27 08:27 64.60209 -27.07439 37823 ft 504 kts 123°
2026-04-27 08:27 64.58652 -27.00140 37530 ft 504 kts 124°
2026-04-27 08:28 64.57112 -26.92937 36998 ft 501 kts 124°
2026-04-27 08:28 64.55558 -26.85697 36295 ft 500 kts 125°
2026-04-27 08:28 64.54000 -26.78468 35586 ft 500 kts 126°
2026-04-27 08:28 64.52439 -26.71252 34878 ft 500 kts 127°
2026-04-27 08:29 64.50875 -26.64044 34182 ft 499 kts 128°
2026-04-27 08:29 64.49309 -26.56855 33351 ft 499 kts 129°
2026-04-27 08:29 64.47733 -26.49657 32276 ft 503 kts 128°
2026-04-27 08:29 64.46134 -26.42395 31260 ft 508 kts 128°
2026-04-27 08:30 64.44525 -26.35090 30325 ft 510 kts 128°
2026-04-27 08:30 64.42902 -26.27741 29328 ft 513 kts 128°
2026-04-27 08:30 64.41279 -26.20409 28474 ft 511 kts 128°
2026-04-27 08:30 64.39666 -26.13130 27781 ft 506 kts 128°
2026-04-27 08:31 64.38070 -26.05953 27193 ft 501 kts 128°
2026-04-27 08:31 64.36471 -25.98807 26653 ft 499 kts 128°
2026-04-27 08:31 64.34879 -25.91720 26138 ft 495 kts 128°
2026-04-27 08:31 64.33299 -25.84702 25645 ft 491 kts 128°
2026-04-27 08:32 64.31726 -25.77739 25085 ft 487 kts 128°
2026-04-27 08:32 64.30184 -25.70934 24458 ft 481 kts 127°
2026-04-27 08:32 64.28639 -25.64141 23814 ft 477 kts 127°
2026-04-27 08:32 64.27101 -25.57404 23206 ft 473 kts 127°
2026-04-27 08:33 64.25577 -25.50742 22549 ft 467 kts 127°
2026-04-27 08:33 64.24068 -25.44162 21893 ft 461 kts 127°
2026-04-27 08:33 64.22578 -25.37689 21253 ft 455 kts 127°
2026-04-27 08:33 64.21103 -25.31304 20638 ft 449 kts 127°
2026-04-27 08:34 64.19645 -25.25009 20013 ft 444 kts 127°
2026-04-27 08:34 64.18202 -25.18796 19398 ft 438 kts 127°
2026-04-27 08:34 64.16774 -25.12671 18796 ft 433 kts 127°
2026-04-27 08:34 64.15361 -25.06624 18223 ft 428 kts 127°
2026-04-27 08:35 64.13977 -25.00720 17557 ft 423 kts 127°
2026-04-27 08:35 64.12575 -24.94749 16853 ft 419 kts 127°
2026-04-27 08:35 64.11420 -24.88579 16096 ft 427 kts 114°
2026-04-27 08:35 64.11021 -24.81843 15438 ft 439 kts 96°
2026-04-27 08:36 64.11180 -24.74894 14925 ft 436 kts 91°
2026-04-27 08:36 64.11425 -24.67989 14483 ft 434 kts 91°
2026-04-27 08:36 64.11665 -24.61126 14046 ft 431 kts 91°
2026-04-27 08:36 64.11892 -24.54323 13538 ft 427 kts 91°
2026-04-27 08:37 64.12107 -24.47600 12917 ft 420 kts 91°
2026-04-27 08:37 64.12313 -24.40986 12299 ft 413 kts 91°
2026-04-27 08:37 64.12510 -24.34469 11673 ft 407 kts 91°
2026-04-27 08:37 64.12700 -24.28053 11051 ft 402 kts 91°
2026-04-27 08:38 64.12885 -24.21755 10699 ft 389 kts 91°
2026-04-27 08:38 64.13062 -24.15684 10461 ft 375 kts 91°
2026-04-27 08:38 64.13230 -24.09833 10227 ft 361 kts 91°
2026-04-27 08:38 64.13385 -24.04276 10023 ft 348 kts 91°
2026-04-27 08:39 64.13534 -23.98863 9835 ft 335 kts 91°
2026-04-27 08:39 64.13676 -23.93632 9653 ft 322 kts 92°
2026-04-27 08:39 64.13811 -23.88607 9449 ft 311 kts 92°
2026-04-27 08:39 64.13942 -23.83725 9153 ft 303 kts 92°
2026-04-27 08:40 64.14066 -23.78942 8791 ft 299 kts 92°
2026-04-27 08:40 64.14183 -23.74224 8409 ft 295 kts 92°
2026-04-27 08:40 64.14298 -23.69550 8011 ft 292 kts 92°
2026-04-27 08:40 64.14412 -23.64927 7645 ft 289 kts 92°
2026-04-27 08:41 64.14524 -23.60361 7290 ft 285 kts 92°
2026-04-27 08:41 64.14634 -23.55849 6917 ft 282 kts 92°
2026-04-27 08:41 64.14741 -23.51388 6538 ft 279 kts 91°
2026-04-27 08:41 64.14845 -23.46975 6149 ft 276 kts 91°
2026-04-27 08:42 64.14947 -23.42602 5738 ft 274 kts 91°
2026-04-27 08:42 64.15047 -23.38252 5317 ft 272 kts 91°
2026-04-27 08:42 64.15147 -23.33923 4910 ft 272 kts 91°
2026-04-27 08:42 64.15244 -23.29652 4660 ft 264 kts 91°
2026-04-27 08:43 64.15337 -23.25598 4493 ft 253 kts 91°
2026-04-27 08:43 64.15426 -23.21640 4341 ft 243 kts 91°
2026-04-27 08:43 64.15511 -23.17815 4086 ft 238 kts 92°
2026-04-27 08:43 64.15590 -23.14049 3809 ft 235 kts 92°
2026-04-27 08:44 64.15668 -23.10329 3497 ft 233 kts 92°
2026-04-27 08:44 64.15744 -23.06603 3154 ft 233 kts 92°
2026-04-27 08:44 64.15821 -23.02909 2977 ft 232 kts 92°
2026-04-27 08:44 64.15896 -22.99201 2962 ft 232 kts 92°
2026-04-27 08:45 64.15969 -22.95552 2960 ft 232 kts 92°
2026-04-27 08:45 64.16043 -22.91856 2961 ft 232 kts 92°
2026-04-27 08:45 64.16116 -22.88156 2963 ft 233 kts 92°
2026-04-27 08:45 64.16188 -22.84464 2957 ft 227 kts 92°
2026-04-27 08:46 64.16259 -22.80908 2956 ft 222 kts 93°
2026-04-27 08:46 64.16328 -22.77372 2953 ft 219 kts 92°
2026-04-27 08:46 64.16403 -22.73937 2984 ft 213 kts 92°
2026-04-27 08:46 64.16454 -22.70563 2975 ft 210 kts 96°
2026-04-27 08:47 64.16373 -22.67300 2943 ft 198 kts 102°
2026-04-27 08:47 64.16220 -22.64303 2968 ft 185 kts 104°
2026-04-27 08:47 64.15810 -22.61578 2814 ft 179 kts 126°
2026-04-27 08:47 64.14938 -22.59659 2559 ft 172 kts 158°
2026-04-27 08:48 64.13794 -22.59243 2344 ft 164 kts 184°
2026-04-27 08:48 64.12725 -22.60039 1982 ft 163 kts 207°
2026-04-27 08:48 64.11916 -22.61904 1785 ft 172 kts 234°
2026-04-27 08:48 64.11550 -22.64527 1771 ft 177 kts 260°
2026-04-27 08:49 64.11754 -22.67307 1770 ft 184 kts 287°
2026-04-27 08:49 64.12549 -22.69718 1762 ft 194 kts 315°
2026-04-27 08:49 64.13763 -22.71019 1760 ft 200 kts 345°
2026-04-27 08:49 64.15154 -22.70850 1770 ft 203 kts 17°
2026-04-27 08:50 64.16333 -22.69187 1767 ft 199 kts 50°
2026-04-27 08:50 64.16989 -22.66491 1760 ft 190 kts 80°
2026-04-27 08:50 64.16966 -22.63581 1766 ft 178 kts 116°
2026-04-27 08:50 64.16131 -22.61717 1784 ft 167 kts 158°
2026-04-27 08:51 64.15035 -22.60897 1776 ft 166 kts 168°
2026-04-27 08:51 64.13938 -22.60619 1770 ft 151 kts 179°
2026-04-27 08:51 64.12940 -22.60584 1771 ft 142 kts 179°
2026-04-27 08:51 64.11954 -22.60555 1773 ft 142 kts 180°
2026-04-27 08:52 64.10960 -22.60562 1775 ft 143 kts 180°
2026-04-27 08:52 64.09955 -22.60556 1785 ft 144 kts 181°
2026-04-27 08:52 64.08964 -22.60549 1776 ft 138 kts 180°
2026-04-27 08:52 64.08048 -22.60543 1756 ft 126 kts 180°
2026-04-27 08:53 64.07200 -22.60539 1760 ft 119 kts 180°
2026-04-27 08:53 64.06369 -22.60536 1647 ft 122 kts 182°
2026-04-27 08:53 64.05524 -22.60540 1480 ft 120 kts 181°
2026-04-27 08:53 64.04693 -22.60540 1320 ft 119 kts 181°
2026-04-27 08:54 64.03854 -22.60540 1153 ft 122 kts 181°
2026-04-27 08:54 64.02993 -22.60537 984 ft 126 kts 181°
2026-04-27 08:54 64.02111 -22.60561 754 ft 125 kts 179°
2026-04-27 08:54 64.01257 -22.60542 654 ft 124 kts 179°
2026-04-27 08:55 64.00389 -22.60526 471 ft 125 kts 180°
2026-04-27 08:55 63.99533 -22.60547 298 ft 121 kts 179°
2026-04-27 08:55 63.98699 -22.60537 163 ft 117 kts 179°
2026-04-27 08:55 63.98064 -22.60545 155 ft 57 kts 180°
2026-04-27 08:56 63.97715 -22.60545 154 ft 43 kts 180°
2026-04-27 08:56 63.97515 -22.60545 154 ft 16 kts 180°
2026-04-27 08:56 63.97434 -22.60589 155 ft 11 kts 233°
2026-04-27 08:56 63.97440 -22.60767 152 ft 13 kts 285°
2026-04-27 08:57 63.97591 -22.60947 153 ft 16 kts
2026-04-27 08:57 63.97712 -22.60947 153 ft 19 kts
2026-04-27 08:57 63.97851 -22.60946 154 ft 21 kts
2026-04-27 08:58 63.98009 -22.60947 155 ft 24 kts 359°
2026-04-27 08:58 63.98184 -22.60948 156 ft 26 kts
2026-04-27 08:58 63.98320 -22.60939 157 ft 28 kts
2026-04-27 08:58 63.98522 -22.60938 159 ft 30 kts 360°
2026-04-27 08:59 63.98732 -22.60941 163 ft 31 kts 358°
2026-04-27 08:59 63.98948 -22.60948 168 ft 31 kts
2026-04-27 08:59 63.99106 -22.60944 172 ft 9 kts
2026-04-27 08:59 63.99163 -22.60984 173 ft 9 kts 312°
2026-04-27 09:00 63.99172 -22.61128 172 ft 11 kts 269°
2026-04-27 09:00 63.99172 -22.61322 172 ft 14 kts 270°
2026-04-27 09:00 63.99171 -22.61566 171 ft 17 kts 269°
2026-04-27 09:00 63.99171 -22.61855 170 ft 20 kts 270°
2026-04-27 09:01 63.99171 -22.62164 169 ft 19 kts 270°
2026-04-27 09:01 63.99170 -22.62374 169 ft 10 kts 270°
2026-04-27 09:01 63.99218 -22.62456 169 ft 10 kts 358°
2026-04-27 09:01 63.99285 -22.62455 169 ft 6 kts 360°
2026-04-27 09:02 63.99287 -22.62455 169 ft 0 kts 360°